FW2392 Weather Reports


time (UTC)temp
C
wind
direction
speed
KPH
gust
KPH
rain 1hr
cm
rain 24hr
cm
rain mn
cm
humidity
%
barometer
mb
20260510033603 12 161 1.6 6.4 0.00 0.00 0.00 68 1010.0
20260510032724 12 157 1.6 6.4 0.00 0.00 0.00 68 1010.1
20260510031803 12 152 3.2 4.8 0.00 0.00 0.00 68 1010.1
20260510030903 12 153 0.0 3.2 0.00 0.00 0.00 70 1010.0
20260510030004 12 0 0.0 4.8 0.00 0.00 0.00 70 1010.1
20260510025424 12 153 1.6 4.8 0.00 0.00 0.00 70 1010.1
20260510024503 12 153 1.6 4.8 0.00 0.00 0.00 71 1009.9
20260510023603 13 153 1.6 3.2 0.00 0.00 0.00 72 1009.9
20260510022703 13 0 0.0 3.2 0.00 0.00 0.00 73 1009.8
20260510021803 13 153 0.0 3.2 0.00 0.00 0.00 74 1009.7
20260510020903 13 153 0.0 1.6 0.00 0.00 0.00 74 1009.6
20260510020003 13 153 1.6 8.0 0.00 0.00 0.00 74 1009.6
20260510015403 13 155 1.6 8.0 0.00 0.00 0.00 74 1009.6
20260510014504 13 161 1.6 8.0 0.00 0.00 0.00 75 1009.5
20260510013602 13 163 0.0 1.6 0.00 0.00 0.00 75 1009.5
20260510012703 14 163 0.0 6.4 0.00 0.00 0.00 75 1009.4
20260510011803 14 163 1.6 8.0 0.00 0.00 0.00 74 1009.4
20260510010903 14 163 1.6 8.0 0.00 0.00 0.00 74 1009.1
20260510010003 15 166 1.6 8.0 0.00 0.00 0.00 74 1009.0
20260510005403 15 158 1.6 6.4 0.00 0.00 0.00 74 1008.9
20260510004503 15 164 1.6 6.4 0.00 0.00 0.00 73 1008.7
20260510003624 15 165 1.6 6.4 0.00 0.00 0.00 73 1008.5
20260510002703 15 154 0.0 6.4 0.00 0.00 0.00 72 1008.4
20260510001803 16 150 1.6 6.4 0.00 0.00 0.00 72 1008.5
20260510000924 16 140 1.6 4.8 0.00 0.00 0.00 71 1008.5
20260510000004 16 96 0.0 4.8 0.00 0.00 0.00 70 1008.7
20260509235425 16 77 0.0 3.2 0.00 0.00 0.00 70 1008.6
20260509234503 17 67 0.0 3.2 0.00 0.00 0.00 68 1008.6
20260509233603 18 63 1.6 3.2 0.00 0.00 0.00 67 1008.6
20260509232703 18 54 1.6 3.2 0.00 0.00 0.00 66 1008.4
20260509231803 18 53 0.0 4.8 0.00 0.00 0.00 51 1008.4
20260509230903 18 71 1.6 6.4 0.00 0.00 0.00 67 1008.3
20260509230003 18 79 1.6 6.4 0.00 0.00 0.00 50 1008.4
20260509225403 18 66 3.2 6.4 0.00 0.00 0.00 65 1008.5
20260509224503 18 41 3.2 6.4 0.00 0.00 0.00 65 1008.4
20260509223624 18 68 3.2 6.4 0.00 0.00 0.00 66 1008.5
20260509222703 18 68 3.2 9.7 0.00 0.00 0.00 66 1008.5
20260509221803 18 76 3.2 11.3 0.00 0.00 0.00 66 1008.3
20260509220925 18 73 3.2 11.3 0.00 0.00 0.00 65 1008.2
20260509220003 18 87 3.2 11.3 0.00 0.00 0.00 66 1008.2
20260509215403 18 81 4.8 12.9 0.00 0.00 0.00 66 1008.3
20260509214503 18 82 4.8 12.9 0.00 0.00 0.00 66 1008.4
20260509213603 18 74 4.8 12.9 0.00 0.00 0.00 65 1008.5
20260509212703 18 74 4.8 9.7 0.00 0.00 0.00 52 1008.5
20260509211803 18 41 4.8 9.7 0.00 0.00 0.00 65 1008.5
20260509210903 18 39 3.2 12.9 0.00 0.00 0.00 50 1008.4
20260509210004 18 42 1.6 12.9 0.00 0.00 0.00 66 1008.6
20260509205403 19 64 3.2 12.9 0.00 0.00 0.00 63 1008.5
20260509204503 19 137 1.6 8.0 0.00 0.00 0.00 65 1008.5
20260509203603 18 49 1.6 9.7 0.00 0.00 0.00 64 1008.3
20260509202703 18 82 3.2 9.7 0.00 0.00 0.00 63 1008.5
20260509201824 18 116 3.2 12.9 0.00 0.00 0.00 67 1008.5
20260509200924 18 134 3.2 12.9 0.00 0.00 0.00 66 1008.5
20260509200003 18 116 1.6 12.9 0.00 0.00 0.00 64 1008.5
20260509195403 18 140 3.2 11.3 0.00 0.00 0.00 64 1008.6
20260509194503 18 173 6.4 11.3 0.00 0.00 0.00 63 1008.6
20260509193603 18 178 4.8 16.1 0.00 0.00 0.00 63 1008.8
20260509192703 18 165 6.4 16.1 0.00 0.00 0.00 63 1008.6
20260509191824 18 204 4.8 14.5 0.00 0.00 0.00 62 1008.9
20260509190903 18 200 6.4 14.5 0.00 0.00 0.00 62 1008.9
20260509190024 18 154 6.4 14.5 0.00 0.00 0.00 63 1009.0
20260509185403 18 154 6.4 14.5 0.00 0.00 0.00 45 1009.0
20260509184503 18 105 4.8 12.9 0.00 0.00 0.00 64 1009.0
20260509183603 17 124 4.8 12.9 0.00 0.00 0.00 67 1009.1
20260509182703 17 112 4.8 11.3 0.00 0.00 0.00 66 1009.2
20260509181803 17 146 3.2 11.3 0.00 0.00 0.00 67 1009.8
20260509180903 16 111 4.8 9.7 0.00 0.00 0.00 64 1009.8
20260509180003 16 45 3.2 8.0 0.00 0.00 0.00 66 1010.3
20260509175404 16 61 3.2 8.0 0.00 0.00 0.00 69 1010.3
20260509174503 16 132 3.2 6.4 0.00 0.00 0.00 67 1010.3
20260509173624 16 282 0.0 4.8 0.00 0.00 0.00 67 1010.7
20260509172703 16 92 1.6 4.8 0.00 0.00 0.00 49 1010.8
20260509171803 16 74 3.2 9.7 0.00 0.00 0.00 64 1010.6
20260509170924 16 73 4.8 9.7 0.00 0.00 0.00 63 1010.6
20260509170003 16 82 3.2 8.0 0.00 0.00 0.00 63 1010.4
20260509165404 16 66 3.2 6.4 0.00 0.00 0.00 64 1010.6
20260509164503 15 77 3.2 6.4 0.00 0.00 0.00 62 1010.7
20260509163603 15 93 3.2 6.4 0.00 0.00 0.00 62 1010.8
20260509162703 16 314 1.6 6.4 0.00 0.00 0.00 62 1010.7
20260509161803 16 121 3.2 6.4 0.00 0.00 0.00 60 1010.8
20260509160903 15 53 1.6 8.0 0.00 0.00 0.00 61 1010.8
20260509160024 15 71 3.2 9.7 0.00 0.00 0.00 61 1010.6
20260509155403 15 30 3.2 9.7 0.00 0.00 0.00 61 1010.6
20260509154504 16 345 3.2 8.0 0.00 0.00 0.00 46 1010.7
20260509153603 16 25 3.2 8.0 0.00 0.00 0.00 61 1010.6
20260509152724 15 11 3.2 8.0 0.00 0.00 0.00 66 1010.8
20260509151803 15 16 3.2 6.4 0.00 0.00 0.00 70 1011.0
20260509150903 14 1 1.6 4.8 0.00 0.00 0.00 68 1011.1
20260509150003 13 352 1.6 4.8 0.00 0.00 0.00 70 1011.2
20260509145403 13 352 0.0 3.2 0.00 0.00 0.00 73 1010.9
20260509144504 13 352 0.0 3.2 0.00 0.00 0.00 72 1011.2
20260509143603 13 352 0.0 4.8 0.00 0.00 0.00 71 1011.0
20260509142703 13 345 1.6 4.8 0.00 0.00 0.00 69 1011.0
20260509141803 13 300 1.6 4.8 0.00 0.00 0.00 69 1010.9
20260509140903 13 256 1.6 3.2 0.00 0.00 0.00 69 1011.0
20260509140024 13 256 1.6 3.2 0.00 0.00 0.00 68 1010.9
20260509135403 13 250 3.2 9.7 0.00 0.00 0.00 66 1010.9
20260509134503 13 208 4.8 6.4 0.00 0.00 0.00 67 1010.9
20260509133603 13 202 3.2 6.4 0.00 0.00 0.00 67 1010.8
20260509132703 13 202 3.2 8.0 0.00 0.00 0.00 67 1010.6
20260509131803 13 203 3.2 9.7 0.00 0.00 0.00 67 1010.7
20260509130903 13 210 3.2 9.7 0.00 0.00 0.00 66 1010.5
20260509130003 13 204 6.4 14.5 0.00 0.00 0.00 66 1010.7
20260509125424 13 196 6.4 14.5 0.00 0.00 0.00 65 1010.7
20260509124503 13 196 4.8 11.3 0.00 0.00 0.00 65 1010.7
20260509123603 13 190 4.8 9.7 0.00 0.00 0.00 65 1010.6
20260509122703 13 201 4.8 9.7 0.00 0.00 0.00 65 1010.6
20260509121803 13 207 4.8 9.7 0.00 0.00 0.00 65 1010.7
20260509120903 13 216 6.4 9.7 0.00 0.00 0.00 64 1010.7
20260509120003 13 220 6.4 11.3 0.00 0.00 0.00 64 1010.8
20260509115403 13 213 6.4 11.3 0.00 0.00 0.00 63 1010.8
20260509114503 13 209 4.8 9.7 0.00 0.00 0.00 47 1010.6
20260509113603 13 222 4.8 8.0 0.00 0.00 0.00 64 1010.6
20260509112703 13 229 4.8 12.9 0.00 0.00 0.00 47 1010.5
20260509111803 13 223 6.4 12.9 0.00 0.00 0.00 62 1010.2
20260509110903 13 258 4.8 11.3 0.00 0.00 0.00 61 1010.1
20260509110003 13 227 4.8 11.3 0.00 0.00 0.00 62 1010.0
20260509105425 13 219 6.4 11.3 0.00 0.00 0.00 61 1009.8
20260509104503 13 222 6.4 14.5 0.00 0.00 0.00 61 1009.8
20260509103603 13 232 6.4 14.5 0.00 0.00 0.00 60 1009.9
20260509102703 13 230 6.4 12.9 0.00 0.00 0.00 61 1010.0
20260509101803 12 222 6.4 14.5 0.00 0.00 0.00 62 1009.9
20260509100903 13 221 6.4 14.5 0.00 0.00 0.00 61 1009.9
20260509100004 13 219 6.4 12.9 0.00 0.00 0.00 60 1009.7
20260509095404 13 219 6.4 12.9 0.00 0.00 0.00 61 1009.7
20260509094503 13 221 6.4 14.5 0.00 0.00 0.00 61 1009.7
20260509093603 12 222 8.0 14.5 0.00 0.00 0.00 62 1009.8
20260509092703 12 214 8.0 16.1 0.00 0.00 0.00 62 1009.8
20260509091803 12 215 8.0 19.3 0.00 0.00 0.00 62 1009.9
20260509090903 12 211 9.7 19.3 0.00 0.00 0.00 61 1010.0
20260509090004 12 198 9.7 19.3 0.00 0.00 0.00 61 1009.9
20260509085424 12 198 11.3 19.3 0.00 0.00 0.00 61 1009.9
20260509084503 12 197 9.7 19.3 0.00 0.00 0.00 61 1010.0
20260509083624 12 197 9.7 19.3 0.00 0.00 0.00 61 1010.1
20260509082703 12 198 9.7 20.9 0.00 0.00 0.00 62 1010.1
20260509081803 12 202 9.7 20.9 0.00 0.00 0.00 62 1010.2
20260509080924 12 199 9.7 17.7 0.00 0.00 0.00 62 1010.1
20260509080003 12 191 8.0 16.1 0.00 0.00 0.00 62 1010.1
20260509075403 12 193 9.7 16.1 0.00 0.00 0.00 62 1010.2
20260509074503 12 196 8.0 14.5 0.00 0.00 0.00 62 1010.2
20260509073603 12 192 8.0 14.5 0.00 0.00 0.00 62 1010.2
20260509072703 12 195 6.4 12.9 0.00 0.00 0.00 62 1010.3
20260509071803 12 195 6.4 12.9 0.00 0.00 0.00 63 1010.3
20260509070903 12 196 6.4 12.9 0.00 0.00 0.00 62 1010.4
20260509070004 12 203 6.4 14.5 0.00 0.00 0.00 62 1010.4
20260509065403 12 196 6.4 14.5 0.00 0.00 0.00 62 1010.4
20260509064503 12 197 6.4 14.5 0.00 0.00 0.00 63 1010.5
20260509063603 12 200 6.4 12.9 0.00 0.00 0.00 63 1010.5
20260509062724 12 197 6.4 16.1 0.00 0.00 0.00 63 1010.6
20260509061803 12 186 8.0 14.5 0.00 0.00 0.00 64 1010.8
20260509060924 12 166 8.0 14.5 0.00 0.00 0.00 49 1010.8
20260509060004 11 157 6.4 14.5 0.00 0.00 0.00 66 1010.7
20260509055403 11 153 6.4 11.3 0.00 0.00 0.00 67 1010.7
20260509054524 11 158 6.4 11.3 0.00 0.00 0.00 66 1010.8
20260509053603 11 148 4.8 9.7 0.00 0.00 0.00 66 1011.1
20260509052703 11 142 4.8 8.0 0.00 0.00 0.00 66 1011.1
20260509051803 12 161 4.8 8.0 0.00 0.00 0.00 65 1011.2
20260509050903 12 169 4.8 8.0 0.00 0.00 0.00 63 1011.2
20260509050025 12 179 4.8 11.3 0.00 0.00 0.00 62 1011.2
20260509045403 12 176 4.8 12.9 0.00 0.00 0.00 62 1011.2
20260509044524 12 174 4.8 12.9 0.00 0.00 0.00 62 1011.2
20260509043603 12 168 6.4 12.9 0.00 0.00 0.00 62 1011.2
20260509042703 12 158 4.8 14.5 0.00 0.00 0.00 62 1011.1
20260509041803 12 154 4.8 14.5 0.00 0.00 0.00 62 1011.3
20260509040903 13 155 6.4 11.3 0.00 0.00 0.00 62 1011.3
20260509040025 13 145 4.8 8.0 0.00 0.00 0.00 62 1011.2
20260509035403 13 143 4.8 8.0 0.00 0.00 0.00 62 1011.2
20260509034504 13 147 4.8 8.0 0.00 0.00 0.00 46 1011.3